| time (UTC) | temp F | wind direction | speed MPH | gust MPH | rain 1hr in | rain 24hr in | rain mn in | humidity % | barometer mb |
| 20260504060214 | 51 | 17 | 7.0 | 11.0 | 0.00 | 0.00 | 0.00 | 61 | 1013.2 |
| 20260504050714 | 53 | 359 | 3.0 | 6.0 | 0.00 | 0.00 | 0.00 | 53 | 1012.9 |
| 20260504050211 | 53 | 359 | 3.0 | 6.0 | 0.00 | 0.00 | 0.00 | 53 | 1012.5 |
| 20260504045711 | 53 | 348 | 3.0 | 5.0 | 0.00 | 0.00 | 0.00 | 52 | 1012.5 |
| 20260504045143 | 53 | 22 | 5.0 | 8.0 | 0.00 | 0.00 | 0.00 | 52 | 1012.9 |
| 20260504044638 | 53 | 29 | 4.0 | 7.0 | 0.00 | 0.00 | 0.00 | 51 | 1012.9 |
| 20260504044135 | 54 | 326 | 1.0 | 2.0 | 0.00 | 0.00 | 0.00 | 51 | 1012.5 |
| 20260504043642 | 54 | 272 | 3.0 | 6.0 | 0.00 | 0.00 | 0.00 | 50 | 1012.2 |
| 20260504043140 | 54 | 69 | 4.0 | 6.0 | 0.00 | 0.00 | 0.00 | 49 | 1012.2 |
| 20260504042640 | 54 | 37 | 2.0 | 2.0 | 0.00 | 0.00 | 0.00 | 48 | 1012.2 |
| 20260504042138 | 54 | 64 | 2.0 | 3.0 | 0.00 | 0.00 | 0.00 | 47 | 1011.9 |
| 20260504041638 | 54 | 55 | 4.0 | 6.0 | 0.00 | 0.00 | 0.00 | 47 | 1012.2 |
| 20260504041140 | 55 | 140 | 1.0 | 2.0 | 0.00 | 0.00 | 0.00 | 46 | 1012.2 |
| 20260504040641 | 55 | 143 | 2.0 | 3.0 | 0.00 | 0.00 | 0.00 | 46 | 1011.9 |
| 20260504040138 | 55 | 43 | 3.0 | 3.0 | 0.00 | 0.00 | 0.00 | 46 | 1011.9 |
| 20260504035639 | 55 | 136 | 3.0 | 5.0 | 0.00 | 0.00 | 0.00 | 46 | 1011.9 |
| 20260504035137 | 55 | 69 | 3.0 | 3.0 | 0.00 | 0.00 | 0.00 | 46 | 1011.5 |
| 20260504034642 | 56 | 33 | 5.0 | 8.0 | 0.00 | 0.00 | 0.00 | 46 | 1011.5 |
| 20260504034136 | 56 | 358 | 3.0 | 3.0 | 0.00 | 0.00 | 0.00 | 45 | 1011.5 |
| 20260504033616 | 56 | 296 | 3.0 | 5.0 | 0.00 | 0.00 | 0.00 | 45 | 1011.5 |
| 20260504033113 | 57 | 129 | 3.0 | 3.0 | 0.00 | 0.00 | 0.00 | 45 | 1010.8 |
| 20260504032611 | 57 | 359 | 5.0 | 8.0 | 0.00 | 0.00 | 0.00 | 45 | 1010.8 |
| 20260504032110 | 57 | 7 | 1.0 | 2.0 | 0.00 | 0.00 | 0.00 | 45 | 1010.5 |
| 20260504031613 | 57 | 133 | 3.0 | 5.0 | 0.00 | 0.00 | 0.00 | 45 | 1010.2 |
| 20260504031139 | 57 | 281 | 6.0 | 11.0 | 0.00 | 0.00 | 0.00 | 44 | 1010.2 |
| 20260504030638 | 57 | 106 | 1.0 | 2.0 | 0.00 | 0.00 | 0.00 | 45 | 1010.2 |
| 20260504030138 | 58 | 103 | 4.0 | 7.0 | 0.00 | 0.00 | 0.00 | 44 | 1010.2 |
| 20260504025644 | 58 | 104 | 0.0 | 1.0 | 0.00 | 0.00 | 0.00 | 44 | 1010.2 |
| 20260504025137 | 58 | 49 | 3.0 | 7.0 | 0.00 | 0.00 | 0.00 | 44 | 1010.2 |
| 20260504024637 | 58 | 89 | 2.0 | 6.0 | 0.00 | 0.00 | 0.00 | 44 | 1009.8 |
| 20260504024142 | 58 | 16 | 5.0 | 7.0 | 0.00 | 0.00 | 0.00 | 44 | 1010.2 |
| 20260504023640 | 59 | 119 | 4.0 | 6.0 | 0.00 | 0.00 | 0.00 | 43 | 1009.8 |
| 20260504023139 | 59 | 110 | 3.0 | 3.0 | 0.00 | 0.00 | 0.00 | 44 | 1009.8 |
| 20260504022635 | 59 | 135 | 4.0 | 7.0 | 0.00 | 0.00 | 0.00 | 43 | 1009.5 |
| 20260504022137 | 59 | 89 | 3.0 | 6.0 | 0.00 | 0.00 | 0.00 | 43 | 1009.5 |
| 20260504021643 | 60 | 138 | 5.0 | 8.0 | 0.00 | 0.00 | 0.00 | 43 | 1009.8 |
| 20260504021140 | 60 | 309 | 3.0 | 3.0 | 0.00 | 0.00 | 0.00 | 43 | 1009.5 |
| 20260504020640 | 61 | 68 | 2.0 | 3.0 | 0.00 | 0.00 | 0.00 | 43 | 1009.5 |
| 20260504020118 | 61 | 132 | 4.0 | 8.0 | 0.00 | 0.00 | 0.00 | 42 | 1009.1 |
| 20260504015618 | 62 | 19 | 3.0 | 6.0 | 0.00 | 0.00 | 0.00 | 42 | 1009.1 |
| 20260504015117 | 63 | 160 | 1.0 | 1.0 | 0.00 | 0.00 | 0.00 | 42 | 1009.1 |
| 20260504014617 | 63 | 1 | 6.0 | 10.0 | 0.00 | 0.00 | 0.00 | 41 | 1008.8 |
| 20260504014116 | 63 | 138 | 8.0 | 9.0 | 0.00 | 0.00 | 0.00 | 42 | 1008.8 |
| 20260504013618 | 64 | 96 | 2.0 | 2.0 | 0.00 | 0.00 | 0.00 | 42 | 1008.8 |
| 20260504013119 | 64 | 80 | 1.0 | 2.0 | 0.00 | 0.00 | 0.00 | 41 | 1008.5 |
| 20260504012617 | 64 | 38 | 2.0 | 3.0 | 0.00 | 0.00 | 0.00 | 41 | 1008.5 |
| 20260504012117 | 64 | 168 | 2.0 | 3.0 | 0.00 | 0.00 | 0.00 | 41 | 1008.1 |
| 20260504011616 | 65 | 88 | 3.0 | 5.0 | 0.00 | 0.00 | 0.00 | 41 | 1008.8 |
| 20260504011116 | 65 | 112 | 3.0 | 3.0 | 0.00 | 0.00 | 0.00 | 41 | 1008.5 |
| 20260504010616 | 66 | 114 | 3.0 | 5.0 | 0.00 | 0.00 | 0.00 | 41 | 1008.5 |
| 20260504010116 | 66 | 139 | 4.0 | 7.0 | 0.00 | 0.00 | 0.00 | 40 | 1008.5 |
| 20260504005617 | 66 | 125 | 5.0 | 8.0 | 0.00 | 0.00 | 0.00 | 41 | 1008.1 |
| 20260504005115 | 66 | 252 | 1.0 | 2.0 | 0.00 | 0.00 | 0.00 | 40 | 1007.8 |
| 20260504004615 | 66 | 116 | 4.0 | 7.0 | 0.00 | 0.00 | 0.00 | 40 | 1007.8 |
| 20260504004117 | 66 | 91 | 2.0 | 3.0 | 0.00 | 0.00 | 0.00 | 40 | 1007.8 |
| 20260504003616 | 66 | 228 | 1.0 | 2.0 | 0.00 | 0.00 | 0.00 | 40 | 1007.8 |
| 20260504003116 | 67 | 339 | 2.0 | 3.0 | 0.00 | 0.00 | 0.00 | 40 | 1007.8 |
| 20260504002616 | 67 | 300 | 3.0 | 6.0 | 0.00 | 0.00 | 0.00 | 40 | 1007.8 |
| 20260504002115 | 67 | 266 | 1.0 | 2.0 | 0.00 | 0.00 | 0.00 | 40 | 1007.8 |
| 20260504001617 | 67 | 261 | 3.0 | 7.0 | 0.00 | 0.00 | 0.00 | 40 | 1007.5 |
| 20260504001115 | 67 | 188 | 4.0 | 5.0 | 0.00 | 0.00 | 0.00 | 40 | 1007.5 |
| 20260504000616 | 67 | 216 | 2.0 | 3.0 | 0.00 | 0.00 | 0.00 | 39 | 1007.8 |
| 20260504000115 | 68 | 352 | 5.0 | 7.0 | 0.00 | 0.00 | 0.00 | 39 | 1007.5 |
| 20260503235616 | 68 | 100 | 5.0 | 8.0 | 0.00 | 0.00 | 0.00 | 39 | 1007.5 |
| 20260503235114 | 68 | 107 | 5.0 | 8.0 | 0.00 | 0.00 | 0.00 | 39 | 1007.5 |
| 20260503234614 | 68 | 11 | 3.0 | 5.0 | 0.00 | 0.00 | 0.00 | 39 | 1007.5 |
| 20260503234114 | 68 | 5 | 3.0 | 6.0 | 0.00 | 0.00 | 0.00 | 39 | 1007.5 |
| 20260503233614 | 69 | 124 | 3.0 | 5.0 | 0.00 | 0.00 | 0.00 | 38 | 1007.5 |
| 20260503233114 | 69 | 71 | 6.0 | 8.0 | 0.00 | 0.00 | 0.00 | 38 | 1007.5 |
| 20260503232614 | 69 | 145 | 3.0 | 5.0 | 0.00 | 0.00 | 0.00 | 38 | 1007.5 |
| 20260503232113 | 69 | 146 | 4.0 | 8.0 | 0.00 | 0.00 | 0.00 | 37 | 1007.1 |
| 20260503231614 | 70 | 355 | 8.0 | 10.0 | 0.00 | 0.00 | 0.00 | 37 | 1007.5 |
| 20260503231113 | 70 | 213 | 3.0 | 7.0 | 0.00 | 0.00 | 0.00 | 37 | 1007.5 |
| 20260503230613 | 71 | 104 | 6.0 | 10.0 | 0.00 | 0.00 | 0.00 | 37 | 1007.1 |
| 20260503230113 | 72 | 236 | 3.0 | 5.0 | 0.00 | 0.00 | 0.00 | 37 | 1007.1 |
| 20260503225615 | 72 | 176 | 2.0 | 3.0 | 0.00 | 0.00 | 0.00 | 37 | 1007.1 |
| 20260503225112 | 73 | 139 | 4.0 | 8.0 | 0.00 | 0.00 | 0.00 | 37 | 1007.1 |
| 20260503224614 | 73 | 165 | 2.0 | 2.0 | 0.00 | 0.00 | 0.00 | 36 | 1007.1 |
| 20260503224115 | 73 | 136 | 5.0 | 9.0 | 0.00 | 0.00 | 0.00 | 33 | 1006.8 |
| 20260503223612 | 72 | 154 | 2.0 | 3.0 | 0.00 | 0.00 | 0.00 | 33 | 1007.1 |
| 20260503223112 | 72 | 205 | 0.0 | 1.0 | 0.00 | 0.00 | 0.00 | 34 | 1006.8 |
| 20260503222612 | 72 | 29 | 5.0 | 7.0 | 0.00 | 0.00 | 0.00 | 33 | 1007.1 |
| 20260503222111 | 72 | 0 | 3.0 | 5.0 | 0.00 | 0.00 | 0.00 | 33 | 1006.8 |
| 20260503221614 | 72 | 49 | 4.0 | 8.0 | 0.00 | 0.00 | 0.00 | 34 | 1006.8 |
| 20260503221112 | 72 | 342 | 1.0 | 2.0 | 0.00 | 0.00 | 0.00 | 33 | 1007.1 |
| 20260503220616 | 72 | 178 | 2.0 | 3.0 | 0.00 | 0.00 | 0.00 | 34 | 1007.1 |
| 20260503220111 | 72 | 85 | 5.0 | 5.0 | 0.00 | 0.00 | 0.00 | 34 | 1007.1 |
| 20260503215611 | 72 | 101 | 1.0 | 1.0 | 0.00 | 0.00 | 0.00 | 33 | 1007.1 |
| 20260503215110 | 72 | 93 | 3.0 | 5.0 | 0.00 | 0.00 | 0.00 | 34 | 1007.5 |
| 20260503214612 | 72 | 99 | 3.0 | 5.0 | 0.00 | 0.00 | 0.00 | 34 | 1007.1 |
| 20260503214110 | 72 | 44 | 5.0 | 9.0 | 0.00 | 0.00 | 0.00 | 34 | 1007.1 |
| 20260503213611 | 72 | 190 | 2.0 | 3.0 | 0.00 | 0.00 | 0.00 | 33 | 1007.1 |
| 20260503213113 | 72 | 227 | 2.0 | 2.0 | 0.00 | 0.00 | 0.00 | 33 | 1007.1 |
| 20260503212610 | 72 | 111 | 4.0 | 7.0 | 0.00 | 0.00 | 0.00 | 33 | 1007.1 |
| 20260503212113 | 72 | 169 | 2.0 | 3.0 | 0.00 | 0.00 | 0.00 | 34 | 1007.1 |
| 20260503211611 | 72 | 196 | 1.0 | 2.0 | 0.00 | 0.00 | 0.00 | 33 | 1007.1 |
| 20260503211109 | 72 | 107 | 2.0 | 2.0 | 0.00 | 0.00 | 0.00 | 33 | 1007.1 |
| 20260503210614 | 72 | 112 | 4.0 | 6.0 | 0.00 | 0.00 | 0.00 | 34 | 1007.1 |
| 20260503210109 | 73 | 300 | 4.0 | 9.0 | 0.00 | 0.00 | 0.00 | 34 | 1007.5 |
| 20260503205612 | 73 | 49 | 5.0 | 7.0 | 0.00 | 0.00 | 0.00 | 34 | 1007.5 |
| 20260503205112 | 73 | 96 | 5.0 | 9.0 | 0.00 | 0.00 | 0.00 | 33 | 1007.5 |
| 20260503204609 | 74 | 168 | 3.0 | 5.0 | 0.00 | 0.00 | 0.00 | 33 | 1007.5 |
| 20260503204110 | 74 | 32 | 3.0 | 3.0 | 0.00 | 0.00 | 0.00 | 33 | 1007.5 |
| 20260503203543 | 74 | 173 | 1.0 | 2.0 | 0.00 | 0.00 | 0.00 | 30 | 1007.5 |
| 20260503203040 | 73 | 44 | 1.0 | 3.0 | 0.00 | 0.00 | 0.00 | 30 | 1007.8 |
| 20260503202536 | 73 | 155 | 1.0 | 2.0 | 0.00 | 0.00 | 0.00 | 30 | 1007.5 |
| 20260503202043 | 73 | 10 | 5.0 | 7.0 | 0.00 | 0.00 | 0.00 | 30 | 1007.8 |
| 20260503201538 | 72 | 303 | 4.0 | 5.0 | 0.00 | 0.00 | 0.00 | 30 | 1007.5 |
| 20260503201040 | 72 | 299 | 0.0 | 1.0 | 0.00 | 0.00 | 0.00 | 31 | 1007.5 |
| 20260503200541 | 72 | 105 | 3.0 | 5.0 | 0.00 | 0.00 | 0.00 | 30 | 1007.5 |
| 20260503200039 | 71 | 118 | 2.0 | 2.0 | 0.00 | 0.00 | 0.00 | 31 | 1007.8 |
| 20260503195538 | 71 | 74 | 4.0 | 5.0 | 0.00 | 0.00 | 0.00 | 30 | 1007.8 |
| 20260503195038 | 71 | 258 | 2.0 | 3.0 | 0.00 | 0.00 | 0.00 | 31 | 1008.1 |
| 20260503194537 | 71 | 270 | 3.0 | 5.0 | 0.00 | 0.00 | 0.00 | 31 | 1008.1 |
| 20260503194039 | 71 | 49 | 5.0 | 7.0 | 0.00 | 0.00 | 0.00 | 31 | 1008.1 |
| 20260503193537 | 72 | 313 | 2.0 | 3.0 | 0.00 | 0.00 | 0.00 | 31 | 1008.1 |
| 20260503193036 | 71 | 115 | 3.0 | 3.0 | 0.00 | 0.00 | 0.00 | 32 | 1008.1 |
| 20260503192543 | 71 | 99 | 2.0 | 3.0 | 0.00 | 0.00 | 0.00 | 31 | 1008.1 |
| 20260503192036 | 71 | 88 | 2.0 | 5.0 | 0.00 | 0.00 | 0.00 | 32 | 1008.1 |
| 20260503191538 | 70 | 110 | 0.0 | 1.0 | 0.00 | 0.00 | 0.00 | 32 | 1008.5 |
| 20260503191036 | 70 | 320 | 2.0 | 3.0 | 0.00 | 0.00 | 0.00 | 31 | 1008.5 |
| 20260503190535 | 69 | 59 | 2.0 | 2.0 | 0.00 | 0.00 | 0.00 | 33 | 1008.5 |
| 20260503190042 | 69 | 291 | 2.0 | 3.0 | 0.00 | 0.00 | 0.00 | 34 | 1008.8 |
| 20260503185539 | 69 | 307 | 1.0 | 2.0 | 0.00 | 0.00 | 0.00 | 34 | 1008.8 |
| 20260503185041 | 69 | 293 | 3.0 | 3.0 | 0.00 | 0.00 | 0.00 | 31 | 1008.8 |
| 20260503184540 | 69 | 55 | 6.0 | 8.0 | 0.00 | 0.00 | 0.00 | 31 | 1008.8 |
| 20260503184112 | 68 | 267 | 6.0 | 9.0 | 0.00 | 0.00 | 0.00 | 32 | 1008.8 |
| 20260503183611 | 68 | 296 | 5.0 | 6.0 | 0.00 | 0.00 | 0.00 | 32 | 1008.8 |
| 20260503183114 | 68 | 264 | 5.0 | 6.0 | 0.00 | 0.00 | 0.00 | 32 | 1008.8 |
| 20260503182613 | 68 | 281 | 4.0 | 5.0 | 0.00 | 0.00 | 0.00 | 32 | 1008.8 |
| 20260503182111 | 68 | 267 | 5.0 | 9.0 | 0.00 | 0.00 | 0.00 | 34 | 1009.1 |
| 20260503181611 | 68 | 329 | 2.0 | 3.0 | 0.00 | 0.00 | 0.00 | 34 | 1008.8 |
| 20260503181113 | 68 | 257 | 4.0 | 7.0 | 0.00 | 0.00 | 0.00 | 34 | 1009.1 |
| 20260503180617 | 68 | 258 | 4.0 | 6.0 | 0.00 | 0.00 | 0.00 | 34 | 1009.1 |
| 20260503180110 | 68 | 310 | 4.0 | 6.0 | 0.00 | 0.00 | 0.00 | 34 | 1009.1 |
| 20260503175612 | 67 | 21 | 3.0 | 6.0 | 0.00 | 0.00 | 0.00 | 33 | 1009.1 |
| 20260503175113 | 67 | 290 | 4.0 | 6.0 | 0.00 | 0.00 | 0.00 | 34 | 1009.1 |
| 20260503174614 | 67 | 18 | 3.0 | 5.0 | 0.00 | 0.00 | 0.00 | 35 | 1009.5 |
| 20260503174110 | 67 | 293 | 5.0 | 6.0 | 0.00 | 0.00 | 0.00 | 35 | 1009.5 |
| 20260503173610 | 67 | 234 | 9.0 | 14.0 | 0.00 | 0.00 | 0.00 | 35 | 1009.5 |
| 20260503173113 | 67 | 162 | 3.0 | 5.0 | 0.00 | 0.00 | 0.00 | 36 | 1009.8 |
| 20260503172612 | 67 | 322 | 3.0 | 5.0 | 0.00 | 0.00 | 0.00 | 35 | 1009.8 |
| 20260503172113 | 66 | 242 | 3.0 | 5.0 | 0.00 | 0.00 | 0.00 | 35 | 1009.8 |
| 20260503171612 | 66 | 218 | 4.0 | 6.0 | 0.00 | 0.00 | 0.00 | 35 | 1009.8 |
| 20260503171137 | 66 | 289 | 6.0 | 8.0 | 0.00 | 0.00 | 0.00 | 36 | 1009.8 |
| 20260503170638 | 66 | 260 | 1.0 | 2.0 | 0.00 | 0.00 | 0.00 | 36 | 1010.2 |
| 20260503170141 | 65 | 278 | 3.0 | 3.0 | 0.00 | 0.00 | 0.00 | 35 | 1009.5 |
| 20260503150510 | 54 | 288 | 3.0 | 3.0 | 0.00 | 0.00 | 0.00 | 47 | 1010.2 |
| 20260503140312 | 49 | 268 | 1.0 | 1.0 | 0.00 | 0.00 | 0.00 | 51 | 1010.5 |
| 20260503131334 | 48 | 285 | 0.0 | 1.0 | 0.00 | 0.00 | 0.00 | 51 | 1010.2 |
| 20260503130837 | 48 | 308 | 1.0 | 2.0 | 0.00 | 0.00 | 0.00 | 51 | 1010.2 |
| 20260503130333 | 49 | 246 | 0.0 | 1.0 | 0.00 | 0.00 | 0.00 | 51 | 1010.2 |
| 20260503110330 | 50 | 233 | 0.0 | 1.0 | 0.00 | 0.00 | 0.00 | 48 | 1010.5 |
| 20260503090329 | 52 | 259 | 2.0 | 2.0 | 0.00 | 0.00 | 0.00 | 45 | 1010.5 |
| 20260503081327 | 54 | 280 | 1.0 | 2.0 | 0.00 | 0.00 | 0.00 | 43 | 1010.5 |
| 20260503080828 | 54 | 290 | 3.0 | 5.0 | 0.00 | 0.00 | 0.00 | 43 | 1010.5 |
| 20260503080329 | 54 | 278 | 3.0 | 3.0 | 0.00 | 0.00 | 0.00 | 42 | 1010.5 |
| 20260503072828 | 55 | 294 | 4.0 | 5.0 | 0.00 | 0.00 | 0.00 | 42 | 1010.8 |
| 20260503072325 | 55 | 322 | 3.0 | 5.0 | 0.00 | 0.00 | 0.00 | 42 | 1010.5 |
| 20260503071828 | 55 | 286 | 3.0 | 5.0 | 0.00 | 0.00 | 0.00 | 42 | 1010.5 |
| 20260503071325 | 55 | 338 | 3.0 | 6.0 | 0.00 | 0.00 | 0.00 | 41 | 1010.8 |
| 20260503070827 | 55 | 260 | 3.0 | 3.0 | 0.00 | 0.00 | 0.00 | 42 | 1010.8 |
| 20260503070324 | 55 | 239 | 4.0 | 7.0 | 0.00 | 0.00 | 0.00 | 41 | 1010.8 |